Location: Unspecified
(0.0000°N, 0.0000°E)
Time: 03:42:51
(UTC+00:00)

Tiangong 2 - Pass Details

Date: 23 November 2017
Orbit: 386 x 390 km, 42.8° (Epoch: 12 December)

Event Time Altitude Azimuth Distance (km) Brightness Sun altitude
Exits shadow 04:43:41 22° 245° (WSW) 905 2.5 -14.7°
Maximum altitude 04:45:29 53° 315° (NW) 482 1.2 -14.3°
Drops below altitude 10° 04:48:35 10° 33° (NNE) 1,407 4.1 -13.5°
Sets 04:50:41 0° 38° (NE) 2,259 5.2 -13.0°
